Hilton Head Island, SC

11:50 AM EDT on August 20, 2017 (GMT -0400)
Hilton Head

Weather History for KHXD - October, 2011

Change the Weather History Date:

Saturday, October 29, 2011

  Actual Average Record
Temperature  
Mean Temperature 62 °F -  
Max Temperature 69 °F 72 °F 86 °F (2016)
Min Temperature 55 °F 52 °F 32 °F (1976)
Degree Days  
Heating Degree Days 3    
Growing Degree Days 12 (Base 50)    
Moisture  
Dew Point 54 °F    
Average Humidity 79    
Maximum Humidity 100    
Minimum Humidity 51    
Precipitation  
Precipitation 0.02 in - - ()
Sea Level Pressure  
Sea Level Pressure 29.97 in    
Wind  
Wind Speed 8 mph (North)    
Max Wind Speed 18 mph    
Max Gust Speed 28 mph    
Visibility 8 miles    
Events Rain    
Averages and records for this station are not official NWS values.
T = Trace of Precipitation, MM = Missing Value Source: NWS Daily Summary

Daily Weather History Graph

Daily Weather History Graph

Search for Another Location

Airport or City:

Trip Planner

Search our weather history database for the weather conditions in past years. The results will help you decide how hot, cold, wet, or windy it might be!

Date:

Astronomy

Oct. 29, 2011 Rise Set
Actual Time 7:37 AM EDT 6:35 PM EDT
Civil Twilight 7:11 AM EDT 7:00 PM EDT
Nautical Twilight 6:42 AM EDT 7:29 PM EDT
Astronomical Twilight 6:14 AM EDT 7:58 PM EDT
Moon 10:46 AM EDT (10/29) 9:08 PM EDT (10/29)
Length of Visible Light 11h 48m
Length of Day
10h 58m
Waxing Crescent, 11% of the Moon is Illuminated
Oct 29
Waxing Crescent
Nov 2
First Quarter
Nov 10
Full
Nov 18
Last Quarter
Nov 25
New

Hourly Weather History & Observations

Time (EDT) Temp. Dew Point Humidity Pressure Visibility Wind Dir Wind Speed Gust Speed Precip Events Conditions
12:15 AM 69.8 °F 66.2 °F 88% 29.93 in 5.0 mi ENE 3.5 mph - 0.00 in   Overcast
12:35 AM 68.0 °F 66.2 °F 94% 29.93 in 5.0 mi NE 4.6 mph - 0.00 in   Overcast
12:55 AM 68.0 °F 66.2 °F 94% 29.92 in 5.0 mi NE 6.9 mph - 0.00 in   Overcast
1:15 AM 68.0 °F 64.4 °F 88% 29.92 in 6.0 mi NNE 6.9 mph - 0.00 in   Overcast
1:35 AM 66.2 °F 64.4 °F 94% 29.91 in 6.0 mi ENE 8.1 mph - 0.00 in   Scattered Clouds
1:55 AM 66.2 °F 64.4 °F 94% 29.90 in 6.0 mi NE 6.9 mph - 0.00 in   Clear
2:35 AM 66.2 °F 64.4 °F 94% 29.89 in 5.0 mi NE 6.9 mph - 0.00 in   Partly Cloudy
2:55 AM 66.2 °F 64.4 °F 94% 29.90 in 6.0 mi NNE 6.9 mph - 0.00 in   Mostly Cloudy
3:15 AM 66.2 °F 64.4 °F 94% 29.89 in 6.0 mi NNE 6.9 mph - 0.00 in   Overcast
3:35 AM 66.2 °F 64.4 °F 94% 29.89 in 6.0 mi NNE 4.6 mph - 0.00 in   Overcast
3:55 AM 66.2 °F 64.4 °F 94% 29.88 in 5.0 mi North 5.8 mph - 0.00 in   Overcast
4:15 AM 64.4 °F 64.4 °F 100% 29.88 in 5.0 mi WNW 6.9 mph - 0.00 in   Overcast
4:35 AM 64.4 °F 62.6 °F 94% 29.88 in 5.0 mi NNE 5.8 mph - 0.00 in   Overcast
4:55 AM 64.4 °F 62.6 °F 94% 29.88 in 7.0 mi North 8.1 mph - 0.00 in   Scattered Clouds
5:35 AM 62.6 °F 60.8 °F 94% 29.88 in 9.0 mi North 6.9 mph - 0.00 in   Overcast
6:15 AM 62.6 °F 59.0 °F 88% 29.87 in 7.0 mi NNE 3.5 mph - 0.00 in Rain Light Rain
6:35 AM 60.8 °F 59.0 °F 94% 29.89 in 4.0 mi Calm Calm - 0.02 in   Light Drizzle
6:50 AM 60.8 °F 59.0 °F 94% 29.89 in 5.0 mi North 5.8 mph - N/A Rain Light Rain
8:15 AM 59.0 °F 57.2 °F 94% 29.90 in 4.0 mi NW 11.5 mph - N/A   Overcast
8:50 AM 57.2 °F 55.4 °F 94% 29.91 in 3.0 mi NW 11.5 mph 18.4 mph N/A   Overcast
9:50 AM 55.4 °F 55.4 °F 100% 29.95 in 3.0 mi North 13.8 mph 21.9 mph N/A   Overcast
11:50 AM 55.4 °F 53.6 °F 94% 29.95 in 10.0 mi North 11.5 mph 18.4 mph N/A   Overcast
12:10 PM 55.4 °F 51.8 °F 88% 29.96 in 10.0 mi NNW 11.5 mph 20.7 mph N/A   Mostly Cloudy
1:50 PM 59.0 °F 48.2 °F 67% 29.93 in 10.0 mi NNW 13.8 mph 27.6 mph N/A   Partly Cloudy
2:50 PM 60.8 °F 48.2 °F 63% 29.93 in 10.0 mi North 13.8 mph 27.6 mph N/A   Partly Cloudy
3:50 PM 60.8 °F 46.4 °F 59% 29.94 in 10.0 mi North 13.8 mph 27.6 mph N/A   Clear
4:50 PM 62.6 °F 46.4 °F 55% 29.95 in 10.0 mi North 9.2 mph 18.4 mph N/A   Clear
5:50 PM 60.8 °F 42.8 °F 52% 29.98 in 10.0 mi North 11.5 mph 23.0 mph N/A   Clear
6:50 PM 59.0 °F 41.0 °F 51% 30.02 in 10.0 mi North 9.2 mph 23.0 mph N/A   Clear
7:50 PM 57.2 °F 42.8 °F 59% 30.05 in 10.0 mi North 5.8 mph 11.5 mph N/A   Clear
9:15 PM 55.4 °F 42.8 °F 63% 30.09 in 10.0 mi North 9.2 mph 16.1 mph 0.00 in   Clear
9:35 PM 55.4 °F 42.8 °F 63% 30.10 in 10.0 mi North 9.2 mph - 0.00 in   Clear
9:55 PM 55.4 °F 41.0 °F 58% 30.10 in 10.0 mi North 10.4 mph 16.1 mph 0.00 in   Clear
10:15 PM 55.4 °F 41.0 °F 58% 30.11 in 10.0 mi North 10.4 mph 18.4 mph 0.00 in   Clear
10:35 PM 55.4 °F 42.8 °F 63% 30.13 in 10.0 mi North 16.1 mph 21.9 mph 0.00 in   Clear
10:55 PM 55.4 °F 39.2 °F 54% 30.14 in 10.0 mi North 13.8 mph 24.2 mph 0.00 in   Clear
11:15 PM 55.4 °F 37.4 °F 51% 30.15 in 10.0 mi North 18.4 mph 24.2 mph 0.00 in   Clear
11:35 PM 55.4 °F 37.4 °F 51% 30.15 in 10.0 mi North 17.3 mph 25.3 mph 0.00 in   Clear
11:55 PM 55.4 °F 37.4 °F 51% 30.15 in 10.0 mi NNE 17.3 mph 25.3 mph 0.00 in   Clear